Time,TemperatureF,DewpointF,PressureIn,WindDirection,WindDirectionDegrees,WindSpeedMPH,WindSpeedGustMPH,Humidity,HourlyPrecipIn,Conditions,Clouds,dailyrainin,SoftwareType,DateUTC
2013-02-28 00:12:00,39.1,29.0,30.00,North,350,3.0,14.0,67,0.00,,,0.00,weatherlink.com 1.10,2013-02-28 06:12:00,
2013-02-28 00:27:00,38.6,28.0,30.00,WSW,248,3.0,11.0,67,0.00,,,0.00,weatherlink.com 1.10,2013-02-28 06:27:00,
2013-02-28 00:42:00,38.1,28.0,30.00,WSW,240,2.0,8.0,68,0.00,,,0.00,weatherlink.com 1.10,2013-02-28 06:42:00,
2013-02-28 00:57:00,37.6,28.0,30.00,WSW,241,0.0,8.0,69,0.00,,,0.00,weatherlink.com 1.10,2013-02-28 06:57:00,
2013-02-28 01:12:00,37.2,28.0,30.00,NNE,15,0.0,6.0,70,0.00,,,0.00,weatherlink.com 1.10,2013-02-28 07:12:00,
2013-02-28 01:27:00,36.9,28.0,30.00,WSW,252,0.0,5.0,71,0.00,,,0.00,weatherlink.com 1.10,2013-02-28 07:27:00,
2013-02-28 01:42:00,36.6,29.0,30.00,WNW,284,2.0,4.0,73,0.00,,,0.00,weatherlink.com 1.10,2013-02-28 07:42:00,
2013-02-28 01:57:00,36.1,29.0,30.00,West,278,1.0,5.0,74,0.00,,,0.00,weatherlink.com 1.10,2013-02-28 07:57:00,
2013-02-28 02:12:00,36.1,29.0,30.00,WSW,250,4.0,5.0,75,0.00,,,0.00,weatherlink.com 1.10,2013-02-28 08:12:00,
2013-02-28 02:27:00,36.0,28.0,30.00,WSW,250,1.0,3.0,74,0.00,,,0.00,weatherlink.com 1.10,2013-02-28 08:27:00,
2013-02-28 02:43:00,35.7,29.0,30.00,WSW,240,2.0,4.0,75,0.00,,,0.00,weatherlink.com 1.10,2013-02-28 08:43:00,
2013-02-28 02:58:00,35.7,29.0,29.99,NNE,20,1.0,6.0,75,0.00,,,0.00,weatherlink.com 1.10,2013-02-28 08:58:00,
2013-02-28 03:13:00,35.5,29.0,29.99,WNW,285,2.0,6.0,76,0.00,,,0.00,weatherlink.com 1.10,2013-02-28 09:13:00,
2013-02-28 03:28:00,35.7,29.0,29.99,WSW,250,1.0,4.0,75,0.00,,,0.00,weatherlink.com 1.10,2013-02-28 09:28:00,
2013-02-28 03:43:00,35.8,29.0,29.99,WSW,255,0.0,3.0,75,0.00,,,0.00,weatherlink.com 1.10,2013-02-28 09:43:00,
2013-02-28 03:58:00,36.1,29.0,30.00,WSW,248,4.0,4.0,74,0.00,,,0.00,weatherlink.com 1.10,2013-02-28 09:58:00,
2013-02-28 04:13:00,36.7,29.0,30.00,West,271,1.0,6.0,73,0.00,,,0.00,weatherlink.com 1.10,2013-02-28 10:13:00,
2013-02-28 04:28:00,37.3,29.0,30.00,NE,34,2.0,8.0,72,0.00,,,0.00,weatherlink.com 1.10,2013-02-28 10:28:00,
2013-02-28 04:43:00,37.5,29.0,30.01,WSW,248,1.0,7.0,72,0.00,,,0.00,weatherlink.com 1.10,2013-02-28 10:43:00,
2013-02-28 04:58:00,37.3,29.0,30.01,NNE,32,4.0,12.0,71,0.00,,,0.00,weatherlink.com 1.10,2013-02-28 10:58:00,
2013-02-28 05:13:00,37.3,28.0,30.01,SW,230,1.0,9.0,69,0.00,,,0.00,weatherlink.com 1.10,2013-02-28 11:13:00,
2013-02-28 05:28:00,37.2,27.0,30.02,WSW,242,3.0,8.0,68,0.00,,,0.00,weatherlink.com 1.10,2013-02-28 11:28:00,
2013-02-28 05:43:00,37.1,28.0,30.03,NNE,27,8.0,10.0,69,0.00,,,0.00,weatherlink.com 1.10,2013-02-28 11:43:00,
2013-02-28 05:58:00,37.1,27.0,30.03,NE,42,5.0,9.0,68,0.00,,,0.00,weatherlink.com 1.10,2013-02-28 11:58:00,
2013-02-28 06:13:00,37.1,27.0,30.04,SW,224,1.0,6.0,68,0.00,,,0.00,weatherlink.com 1.10,2013-02-28 12:13:00,
2013-02-28 06:28:00,37.1,27.0,30.04,WNW,296,0.0,6.0,68,0.00,,,0.00,weatherlink.com 1.10,2013-02-28 12:28:00,
2013-02-28 06:43:00,37.2,27.0,30.04,East,82,2.0,6.0,68,0.00,,,0.00,weatherlink.com 1.10,2013-02-28 12:43:00,
2013-02-28 06:58:00,37.3,27.0,30.04,WSW,248,2.0,6.0,67,0.00,,,0.00,weatherlink.com 1.10,2013-02-28 12:58:00,
2013-02-28 07:13:00,37.5,28.0,30.05,SSW,204,0.0,6.0,68,0.00,,,0.00,weatherlink.com 1.10,2013-02-28 13:13:00,
2013-02-28 07:28:00,37.7,28.0,30.05,NNE,23,3.0,6.0,68,0.00,,,0.00,weatherlink.com 1.10,2013-02-28 13:28:00,
2013-02-28 07:43:00,37.9,28.0,30.05,WNW,290,2.0,7.0,68,0.00,,,0.00,weatherlink.com 1.10,2013-02-28 13:43:00,
2013-02-28 07:58:00,38.2,28.0,30.06,NNE,19,3.0,7.0,68,0.00,,,0.00,weatherlink.com 1.10,2013-02-28 13:58:00,
2013-02-28 08:13:00,38.3,29.0,30.06,SE,136,1.0,10.0,68,0.00,,,0.00,weatherlink.com 1.10,2013-02-28 14:13:00,
2013-02-28 08:28:00,38.3,29.0,30.07,WSW,257,3.0,10.0,68,0.00,,,0.00,weatherlink.com 1.10,2013-02-28 14:28:00,
2013-02-28 08:43:00,38.3,29.0,30.07,WSW,245,4.0,9.0,68,0.00,,,0.00,weatherlink.com 1.10,2013-02-28 14:43:00,
2013-02-28 08:58:00,38.6,29.0,30.07,North,10,1.0,8.0,68,0.00,,,0.00,weatherlink.com 1.10,2013-02-28 14:58:00,
2013-02-28 09:13:00,38.9,28.0,30.07,North,6,2.0,11.0,66,0.00,,,0.00,weatherlink.com 1.10,2013-02-28 15:13:00,
2013-02-28 09:28:00,38.8,27.0,30.08,WSW,251,3.0,10.0,64,0.00,,,0.00,weatherlink.com 1.10,2013-02-28 15:28:00,
2013-02-28 09:58:00,40.0,27.0,30.08,North,10,3.0,10.0,61,0.00,,,0.00,weatherlink.com 1.10,2013-02-28 15:58:00,
2013-02-28 10:13:00,40.5,27.0,30.08,NNE,12,6.0,8.0,60,0.00,,,0.00,weatherlink.com 1.10,2013-02-28 16:13:00,
2013-02-28 10:28:00,40.4,27.0,30.08,WSW,246,1.0,9.0,60,0.00,,,0.00,weatherlink.com 1.10,2013-02-28 16:28:00,
2013-02-28 10:43:00,40.1,27.0,30.08,NNW,339,5.0,8.0,61,0.00,,,0.00,weatherlink.com 1.10,2013-02-28 16:43:00,
2013-02-28 10:58:00,40.1,27.0,30.09,NNW,338,1.0,13.0,60,0.00,,,0.00,weatherlink.com 1.10,2013-02-28 16:58:00,
2013-02-28 11:13:00,40.3,27.0,30.09,SSW,212,3.0,8.0,60,0.00,,,0.00,weatherlink.com 1.10,2013-02-28 17:13:00,
2013-02-28 11:28:00,40.5,28.0,30.10,NE,40,2.0,8.0,61,0.00,,,0.00,weatherlink.com 1.10,2013-02-28 17:28:00,
2013-02-28 11:43:00,40.7,28.0,30.09,WSW,253,2.0,10.0,62,0.00,,,0.00,weatherlink.com 1.10,2013-02-28 17:43:00,
2013-02-28 11:59:00,41.3,29.0,30.10,South,170,2.0,6.0,61,0.00,,,0.00,weatherlink.com 1.10,2013-02-28 17:59:00,
2013-02-28 12:14:00,41.0,28.0,30.09,West,267,1.0,7.0,60,0.00,,,0.00,weatherlink.com 1.10,2013-02-28 18:14:00,
2013-02-28 12:29:00,41.2,29.0,30.09,NNE,19,2.0,4.0,61,0.00,,,0.00,weatherlink.com 1.10,2013-02-28 18:29:00,
2013-02-28 12:44:00,41.4,29.0,30.09,NNE,18,9.0,9.0,61,0.00,,,0.00,weatherlink.com 1.10,2013-02-28 18:44:00,
2013-02-28 12:59:00,41.8,29.0,30.09,NNE,20,7.0,7.0,60,0.00,,,0.00,weatherlink.com 1.10,2013-02-28 18:59:00,
2013-02-28 13:14:00,41.9,29.0,30.09,North,357,2.0,8.0,60,0.00,,,0.00,weatherlink.com 1.10,2013-02-28 19:14:00,
2013-02-28 13:29:00,41.7,29.0,30.09,West,259,0.0,8.0,60,0.00,,,0.00,weatherlink.com 1.10,2013-02-28 19:29:00,
2013-02-28 13:44:00,41.7,29.0,30.09,SW,223,1.0,6.0,61,0.00,,,0.00,weatherlink.com 1.10,2013-02-28 19:44:00,
2013-02-28 13:59:00,41.6,28.0,30.09,NNE,28,2.0,10.0,60,0.00,,,0.00,weatherlink.com 1.10,2013-02-28 19:59:00,
2013-02-28 14:14:00,41.9,29.0,30.09,NNE,20,6.0,6.0,61,0.00,,,0.00,weatherlink.com 1.10,2013-02-28 20:14:00,
2013-02-28 14:29:00,42.3,29.0,30.09,ENE,67,1.0,5.0,60,0.00,,,0.00,weatherlink.com 1.10,2013-02-28 20:29:00,
2013-02-28 14:44:00,42.5,29.0,30.09,WSW,256,2.0,8.0,59,0.00,,,0.00,weatherlink.com 1.10,2013-02-28 20:44:00,
2013-02-28 14:59:00,43.0,30.0,30.09,North,356,0.0,10.0,60,0.00,,,0.00,weatherlink.com 1.10,2013-02-28 20:59:00,
2013-02-28 15:14:00,42.4,29.0,30.10,WSW,241,2.0,8.0,60,0.00,,,0.00,weatherlink.com 1.10,2013-02-28 21:14:00,
2013-02-28 15:29:00,42.1,29.0,30.10,ENE,63,3.0,6.0,60,0.00,,,0.00,weatherlink.com 1.10,2013-02-28 21:29:00,
2013-02-28 15:44:00,41.8,29.0,30.10,NNE,23,8.0,8.0,61,0.00,,,0.00,weatherlink.com 1.10,2013-02-28 21:44:00,
2013-02-28 15:59:00,41.8,29.0,30.09,NNW,347,2.0,9.0,61,0.00,,,0.00,weatherlink.com 1.10,2013-02-28 21:59:00,
2013-02-28 16:14:00,42.0,29.0,30.09,NE,41,1.0,4.0,60,0.00,,,0.00,weatherlink.com 1.10,2013-02-28 22:14:00,
2013-02-28 16:29:00,41.9,29.0,30.09,SW,215,2.0,6.0,60,0.00,,,0.00,weatherlink.com 1.10,2013-02-28 22:29:00,
2013-02-28 16:44:00,41.7,29.0,30.09,NNW,342,1.0,5.0,61,0.00,,,0.00,weatherlink.com 1.10,2013-02-28 22:44:00,
2013-02-28 16:59:00,41.6,29.0,30.09,SW,233,2.0,5.0,61,0.00,,,0.00,weatherlink.com 1.10,2013-02-28 22:59:00,
2013-02-28 17:14:00,41.4,29.0,30.10,West,260,1.0,7.0,62,0.00,,,0.00,weatherlink.com 1.10,2013-02-28 23:14:00,
2013-02-28 17:29:00,41.2,29.0,30.10,West,263,1.0,5.0,62,0.00,,,0.00,weatherlink.com 1.10,2013-02-28 23:29:00,
2013-02-28 17:44:00,41.1,29.0,30.11,NNE,22,2.0,4.0,63,0.00,,,0.00,weatherlink.com 1.10,2013-02-28 23:44:00,
2013-02-28 17:59:00,40.9,29.0,30.11,WSW,240,0.0,4.0,64,0.00,,,0.00,weatherlink.com 1.10,2013-02-28 23:59:00,
2013-02-28 18:29:00,40.8,30.0,30.11,West,266,1.0,2.0,66,0.00,,,0.00,weatherlink.com 1.10,2013-03-01 00:29:00,
2013-02-28 18:44:00,40.7,30.0,30.11,West,267,0.0,1.0,66,0.00,,,0.00,weatherlink.com 1.10,2013-03-01 00:44:00,
2013-02-28 18:59:00,40.5,30.0,30.11,WNW,290,0.0,1.0,67,0.00,,,0.00,weatherlink.com 1.10,2013-03-01 00:59:00,
2013-02-28 19:14:00,40.5,31.0,30.11,West,262,0.0,3.0,68,0.00,,,0.00,weatherlink.com 1.10,2013-03-01 01:14:00,
2013-02-28 19:29:00,40.5,31.0,30.11,NNE,30,0.0,1.0,68,0.00,,,0.00,weatherlink.com 1.10,2013-03-01 01:29:00,
2013-02-28 19:44:00,40.3,31.0,30.11,NNE,27,0.0,1.0,69,0.00,,,0.00,weatherlink.com 1.10,2013-03-01 01:44:00,
2013-02-28 19:59:00,40.3,31.0,30.11,North,10,1.0,3.0,69,0.00,,,0.00,weatherlink.com 1.10,2013-03-01 01:59:00,
2013-02-28 20:14:00,40.0,31.0,30.11,NNE,30,1.0,3.0,70,0.00,,,0.00,weatherlink.com 1.10,2013-03-01 02:14:00,
2013-02-28 20:29:00,39.7,31.0,30.11,NNE,24,2.0,4.0,71,0.00,,,0.00,weatherlink.com 1.10,2013-03-01 02:29:00,
2013-02-28 20:44:00,39.4,30.0,30.12,West,260,1.0,4.0,70,0.00,,,0.00,weatherlink.com 1.10,2013-03-01 02:44:00,
2013-02-28 20:59:00,39.1,30.0,30.12,NNE,24,0.0,6.0,69,0.00,,,0.00,weatherlink.com 1.10,2013-03-01 02:59:00,
2013-02-28 21:14:00,38.4,29.0,30.12,North,358,1.0,4.0,69,0.00,,,0.00,weatherlink.com 1.10,2013-03-01 03:14:00,
2013-02-28 21:29:00,38.0,29.0,30.12,NNE,16,1.0,2.0,70,0.00,,,0.00,weatherlink.com 1.10,2013-03-01 03:29:00,
2013-02-28 21:44:00,37.7,29.0,30.12,North,11,0.0,3.0,71,0.00,,,0.00,weatherlink.com 1.10,2013-03-01 03:44:00,
2013-02-28 21:59:00,37.3,29.0,30.12,West,270,1.0,3.0,72,0.00,,,0.00,weatherlink.com 1.10,2013-03-01 03:59:00,
2013-02-28 22:14:00,37.2,29.0,30.12,NE,47,0.0,4.0,72,0.00,,,0.00,weatherlink.com 1.10,2013-03-01 04:14:00,
2013-02-28 22:29:00,36.5,29.0,30.11,North,1,0.0,1.0,74,0.00,,,0.00,weatherlink.com 1.10,2013-03-01 04:29:00,
2013-02-28 22:44:00,35.8,29.0,30.12,WSW,255,0.0,3.0,76,0.00,,,0.00,weatherlink.com 1.10,2013-03-01 04:44:00,
2013-02-28 22:59:00,36.2,29.0,30.11,WNW,300,0.0,7.0,75,0.00,,,0.00,weatherlink.com 1.10,2013-03-01 04:59:00,
2013-02-28 23:14:00,36.0,29.0,30.11,NNE,26,2.0,5.0,76,0.00,,,0.00,weatherlink.com 1.10,2013-03-01 05:14:00,
2013-02-28 23:29:00,36.1,30.0,30.11,West,260,1.0,4.0,77,0.00,,,0.00,weatherlink.com 1.10,2013-03-01 05:29:00,
2013-02-28 23:44:00,36.5,30.0,30.10,West,272,2.0,6.0,77,0.00,,,0.00,weatherlink.com 1.10,2013-03-01 05:44:00,
2013-02-28 23:59:00,36.5,30.0,30.11,North,10,5.0,7.0,77,0.00,,,0.00,weatherlink.com 1.10,2013-03-01 05:59:00,